• In Netherlands
  • List of Countries
  • For 7 days
  • Water Temperature
  • Satellite Maps
  • Weather Map
  • Weather Widgets
  • user-avatar
    Login

    Hourly Weather Abovyan

    Today, 27 April, Thursday

    Time Temperature Precipitation Wind Pressure Humidity
    00:00 +6°C° 0 mm 2 mps 677 mmHg 76%
    01:00 +5°C° 0 mm 2 mps 677 mmHg 77%
    02:00 +6°C° 0 mm 1 mps 677 mmHg 78%
    03:00 +6°C° 0 mm 1 mps 677 mmHg 79%
    04:00 +6°C° 0 mm 1 mps 677 mmHg 77%
    05:00 +6°C° 0 mm 1 mps 677 mmHg 76%
    06:00 +6°C° 0 mm 1 mps 677 mmHg 74%
    07:00 +9°C° 0 mm 1 mps 677 mmHg 64%
    08:00 +11°C° 0 mm 1 mps 677 mmHg 53%
    09:00 +14°C° 0 mm 1 mps 677 mmHg 43%
    10:00 +15°C° 0 mm 2 mps 677 mmHg 39%
    11:00 +16°C° 0 mm 2 mps 677 mmHg 35%
    12:00 +18°C° 0 mm 2 mps 677 mmHg 31%
    13:00 +18°C° 0 mm 2 mps 676 mmHg 30%
    14:00 +19°C° 0 mm 2 mps 676 mmHg 30%
    15:00 +19°C° 0 mm 2 mps 676 mmHg 29%
    16:00 +18°C° 0 mm 2 mps 676 mmHg 34%
    17:00 +16°C° 0 mm 2 mps 675 mmHg 40%
    18:00 +15°C° 0 mm 2 mps 675 mmHg 46%
    19:00 +13°C° 0 mm 2 mps 675 mmHg 53%
    20:00 +12°C° 0 mm 2 mps 676 mmHg 61%
    21:00 +9°C° 0 mm 2 mps 676 mmHg 69%
    22:00 +8°C° 0 mm 2 mps 676 mmHg 72%
    23:00 +8°C° 0 mm 2 mps 676 mmHg 74%

    Tomorrow, 28 April, Friday

    Time Temperature Precipitation Wind Pressure Humidity
    00:00 +7°C° 0 mm 2 mps 676 mmHg 76%
    01:00 +7°C° 0 mm 2 mps 676 mmHg 77%
    02:00 +6°C° 0 mm 2 mps 676 mmHg 78%
    03:00 +7°C° 0 mm 1 mps 675 mmHg 79%
    04:00 +7°C° 0 mm 1 mps 675 mmHg 77%
    05:00 +8°C° 0 mm 1 mps 676 mmHg 76%
    06:00 +8°C° 0 mm 1 mps 676 mmHg 74%
    07:00 +11°C° 0 mm 1 mps 676 mmHg 64%
    08:00 +13°C° 0 mm 1 mps 676 mmHg 53%
    09:00 +16°C° 0 mm 1 mps 676 mmHg 42%
    10:00 +18°C° 0 mm 1 mps 676 mmHg 39%
    11:00 +19°C° 0 mm 2 mps 676 mmHg 36%
    12:00 +20°C° 0 mm 2 mps 675 mmHg 34%
    13:00 +20°C° 0 mm 2 mps 675 mmHg 33%
    14:00 +21°C° 0 mm 2 mps 674 mmHg 33%
    15:00 +21°C° 0 mm 2 mps 674 mmHg 33%
    16:00 +20°C° 0 mm 2 mps 673 mmHg 39%
    17:00 +20°C° 0 mm 1 mps 673 mmHg 44%
    18:00 +18°C° 0 mm 1 mps 673 mmHg 50%
    19:00 +16°C° 0 mm 1 mps 673 mmHg 57%
    20:00 +14°C° 0 mm 2 mps 673 mmHg 64%
    21:00 +12°C° 0 mm 2 mps 673 mmHg 70%
    22:00 +12°C° 0 mm 2 mps 673 mmHg 73%
    23:00 +12°C° 0 mm 2 mps 673 mmHg 75%

    Day after tomorrow, 29 April, Saturday

    Time Temperature Precipitation Wind Pressure Humidity
    00:00 +12°C° 0 mm 1 mps 673 mmHg 77%
    01:00 +11°C° 0.2 mm 1 mps 672 mmHg 77%
    02:00 +11°C° 0.2 mm 1 mps 672 mmHg 78%
    03:00 +11°C° 0.2 mm 1 mps 672 mmHg 78%
    04:00 +11°C° 0.2 mm 1 mps 672 mmHg 77%
    05:00 +11°C° 0.2 mm 1 mps 672 mmHg 77%
    06:00 +11°C° 0.2 mm 1 mps 672 mmHg 76%
    07:00 +14°C° 0.1 mm 1 mps 672 mmHg 67%
    08:00 +16°C° 0.1 mm 1 mps 672 mmHg 58%
    09:00 +19°C° 0.1 mm 1 mps 673 mmHg 49%
    10:00 +20°C° 0.2 mm 1 mps 672 mmHg 46%
    11:00 +20°C° 0.2 mm 2 mps 672 mmHg 43%
    12:00 +21°C° 0.2 mm 2 mps 672 mmHg 41%
    13:00 +23°C° 0.3 mm 2 mps 672 mmHg 40%
    14:00 +23°C° 0.3 mm 2 mps 671 mmHg 40%
    15:00 +23°C° 0.3 mm 2 mps 671 mmHg 39%
    16:00 +21°C° 0.5 mm 2 mps 671 mmHg 44%
    17:00 +20°C° 0.5 mm 2 mps 671 mmHg 49%
    18:00 +19°C° 0.5 mm 2 mps 671 mmHg 54%
    19:00 +17°C° 0.6 mm 2 mps 671 mmHg 60%
    20:00 +15°C° 0.6 mm 1 mps 671 mmHg 65%
    21:00 +13°C° 0.6 mm 1 mps 671 mmHg 71%
    22:00 +13°C° 0.4 mm 1 mps 671 mmHg 72%
    23:00 +12°C° 0.4 mm 1 mps 670 mmHg 74%

    30 April, Sunday

    Time Temperature Precipitation Wind Pressure Humidity
    00:00 +12°C° 0.4 mm 1 mps 670 mmHg 76%
    01:00 +11°C° 0.2 mm 1 mps 670 mmHg 77%
    02:00 +11°C° 0.2 mm 1 mps 670 mmHg 78%
    03:00 +10°C° 0.2 mm 1 mps 670 mmHg 80%
    04:00 +11°C° 0.1 mm 1 mps 670 mmHg 78%
    05:00 +11°C° 0.1 mm 1 mps 670 mmHg 76%
    06:00 +11°C° 0.1 mm 1 mps 671 mmHg 75%
    07:00 +14°C° 0 mm 1 mps 671 mmHg 65%
    08:00 +16°C° 0 mm 1 mps 672 mmHg 56%
    09:00 +20°C° 0 mm 1 mps 672 mmHg 46%
    10:00 +20°C° 0 mm 2 mps 672 mmHg 43%
    11:00 +21°C° 0 mm 2 mps 672 mmHg 39%
    12:00 +23°C° 0 mm 2 mps 672 mmHg 35%
    13:00 +24°C° 0.1 mm 2 mps 672 mmHg 35%
    14:00 +24°C° 0.1 mm 3 mps 671 mmHg 34%
    15:00 +24°C° 0.1 mm 3 mps 671 mmHg 33%
    16:00 +23°C° 0.2 mm 2 mps 671 mmHg 39%
    17:00 +21°C° 0.2 mm 2 mps 671 mmHg 44%
    18:00 +21°C° 0.2 mm 1 mps 671 mmHg 50%
    19:00 +19°C° 0.2 mm 1 mps 671 mmHg 54%
    20:00 +16°C° 0.2 mm 1 mps 671 mmHg 58%
    21:00 +14°C° 0.2 mm 1 mps 671 mmHg 62%
    22:00 +13°C° 0.1 mm 1 mps 670 mmHg 64%
    23:00 +13°C° 0.1 mm 1 mps 670 mmHg 66%

    1 May, Monday

    Time Temperature Precipitation Wind Pressure Humidity
    00:00 +12°C° 0.1 mm 1 mps 670 mmHg 67%
    01:00 +11°C° 0 mm 1 mps 670 mmHg 69%
    02:00 +11°C° 0 mm 1 mps 670 mmHg 70%
    03:00 +10°C° 0 mm 1 mps 670 mmHg 72%
    04:00 +11°C° 0 mm 1 mps 670 mmHg 70%
    05:00 +11°C° 0 mm 1 mps 671 mmHg 67%
    06:00 +12°C° 0 mm 1 mps 671 mmHg 65%
    07:00 +15°C° 0 mm 1 mps 672 mmHg 56%
    08:00 +19°C° 0 mm 1 mps 672 mmHg 47%
    09:00 +22°C° 0 mm 1 mps 673 mmHg 37%
    10:00 +23°C° 0 mm 1 mps 673 mmHg 35%
    11:00 +24°C° 0 mm 2 mps 673 mmHg 32%
    12:00 +25°C° 0 mm 2 mps 673 mmHg 30%
    13:00 +26°C° 0.1 mm 2 mps 673 mmHg 30%
    14:00 +26°C° 0.1 mm 2 mps 672 mmHg 30%
    15:00 +26°C° 0.1 mm 2 mps 672 mmHg 30%
    16:00 +25°C° 0.2 mm 1 mps 672 mmHg 37%
    17:00 +23°C° 0.2 mm 1 mps 672 mmHg 43%
    18:00 +22°C° 0.2 mm 1 mps 672 mmHg 50%
    19:00 +20°C° 0.1 mm 1 mps 672 mmHg 54%
    20:00 +18°C° 0.1 mm 1 mps 671 mmHg 58%
    21:00 +15°C° 0.1 mm 1 mps 671 mmHg 63%
    22:00 +15°C° 0 mm 1 mps 671 mmHg 65%
    23:00 +14°C° 0 mm 1 mps 671 mmHg 67%

    2 May, Tuesday

    Time Temperature Precipitation Wind Pressure Humidity
    00:00 +14°C° 0 mm 2 mps 671 mmHg 69%
    01:00 +14°C° 0 mm 1 mps 671 mmHg 71%
    02:00 +14°C° 0 mm 1 mps 671 mmHg 72%
    03:00 +14°C° 0 mm 1 mps 671 mmHg 73%
    04:00 +14°C° 0 mm 1 mps 671 mmHg 72%
    05:00 +14°C° 0 mm 1 mps 671 mmHg 71%
    06:00 +15°C° 0 mm 1 mps 671 mmHg 70%
    07:00 +18°C° 0 mm 1 mps 672 mmHg 61%
    08:00 +20°C° 0 mm 1 mps 672 mmHg 52%
    09:00 +21°C° 0 mm 2 mps 672 mmHg 43%
    10:00 +23°C° 0 mm 2 mps 672 mmHg 41%
    11:00 +24°C° 0 mm 2 mps 672 mmHg 38%
    12:00 +26°C° 0 mm 3 mps 672 mmHg 36%
    13:00 +26°C° 0.2 mm 2 mps 672 mmHg 37%
    14:00 +25°C° 0.2 mm 2 mps 671 mmHg 38%
    15:00 +25°C° 0.2 mm 2 mps 671 mmHg 40%
    16:00 +24°C° 0.6 mm 2 mps 671 mmHg 48%
    17:00 +22°C° 0.6 mm 1 mps 671 mmHg 56%
    18:00 +21°C° 0.6 mm 1 mps 671 mmHg 64%
    19:00 +20°C° 1.2 mm 1 mps 671 mmHg 69%
    20:00 +18°C° 1.2 mm 1 mps 671 mmHg 75%
    21:00 +16°C° 1.2 mm 1 mps 671 mmHg 80%
    22:00 +16°C° 0.7 mm 1 mps 671 mmHg 82%
    23:00 +15°C° 0.7 mm 1 mps 670 mmHg 84%
    Show more